#timestamp,LO_Frequency,Hit 
1497610815.5,286046963.6,N
1497610835.3,286046961.7,N
1497610855.2,286046961.0,N
1497610875.9,286046961.2,N
1497610895.7,286046957.6,N
1497610915.6,286046959.5,N
1497610935.4,286046957.6,N
1497610955.2,286046958.3,N
1497610975.0,286046959.2,N
1497610975.9,286046959.2,N
1497610995.8,286046957.6,N
1497611015.6,286046959.3,N
1497611035.4,286046957.1,N
1497611055.3,286046954.1,N
1497611075.1,286046952.3,N
1497611095.8,286046953.6,N
1497611115.7,286046957.4,N
1497611135.5,286046958.9,N
1497611155.3,286046957.0,N
1497611175.2,286046957.9,N
1497611195.9,286046955.5,N
1497611215.7,286046954.9,N
1497611235.5,286046957.6,N
1497611255.4,286046958.0,N
1497611275.2,286046955.4,N
1497611295.0,286046953.7,N
1497611295.9,286046953.7,N
1497611315.8,286046954.3,N
1497611335.6,286046951.8,N
1497611355.4,286046953.6,N
1497611375.3,286046955.6,N
1497611395.1,286046956.4,N
1497611396.0,286046956.4,N
1497611415.8,286046955.1,N
1497611435.7,286046956.4,N
1497611455.5,286046953.6,N
1497611475.3,286046956.3,N
1497611495.2,286046957.6,N
1497611515.9,286046955.2,N
1497611535.7,286046957.6,N
1497611555.6,286046955.2,N
1497611575.4,286046953.8,N
1497611595.2,286046954.1,N
1497611615.0,286046955.8,N
1497611615.9,286046955.8,N
1497611635.8,286046953.6,N
1497611655.6,286046955.0,N
1497611675.4,286046955.1,N
1497611695.3,286046952.1,N
1497611715.1,286046950.5,N
1497611716.0,286046950.5,N
1497611735.8,286046953.0,N
1497611755.7,286046952.1,N
1497611775.5,286046953.2,N
1497611795.3,286046950.4,N
1497611815.2,286046952.7,N
1497611835.9,286046950.8,N
1497611855.7,286046951.3,N
1497611875.5,286046951.1,N
1497611895.4,286046949.9,N
1497611915.2,286046948.8,N
1497611935.0,286046948.8,N
1497611935.9,286046948.8,N
1497611955.8,286046949.5,N
1497611975.6,286046948.3,N
1497611995.4,286046948.2,N
1497612015.3,286046949.2,N
1497612035.1,286046951.6,N
1497612036.0,286046951.6,N
1497612055.8,286046950.8,N
1497612075.7,286046951.5,N
1497612095.5,286046949.1,N
1497612115.3,286046949.4,N
1497612135.2,286046948.1,N
1497612155.9,286046947.0,N
1497612175.7,286046951.2,N
1497612195.5,286046947.0,N
1497612215.4,286046949.6,N
1497612235.2,286046947.0,N
1497612255.0,286046945.9,N
1497612255.9,286046945.9,N
1497612275.8,286046946.1,N
1497612295.6,286046945.6,N
1497612315.4,286046948.0,N
1497612335.3,286046947.5,N
1497612355.1,286046946.6,N
1497612356.0,286046946.6,N
1497612375.8,286046946.8,N
1497612395.7,286046944.0,N
1497612415.5,286046946.8,N
1497612435.3,286046946.8,N
1497612455.2,286046946.5,N
1497612475.9,286046946.1,N
1497612495.7,286046944.6,N
1497612515.6,286046942.8,Y
1497612535.4,286046963.0,N
1497612555.2,286046964.4,N
1497612575.0,286046965.4,N
1497612576.0,286046965.4,N
1497612595.8,286046963.4,N
1497612615.6,286046961.5,N
1497612635.5,286046961.8,N
1497612655.3,286046964.0,N
1497612675.1,286046961.9,N
1497612695.8,286046959.7,N
1497612715.7,286046961.9,N
1497612735.5,286046962.3,N
1497612755.3,286046962.0,N
1497612775.2,286046960.9,N
1497612795.9,286046960.8,N
1497612815.7,286046964.3,N
1497612835.6,286046963.2,N
1497612855.4,286046962.2,N
1497612875.2,286046962.1,N
1497612895.1,286046962.8,N
1497612896.0,286046962.8,N
1497612915.8,286046962.4,N
1497612935.6,286046963.9,N
1497612955.4,286046960.5,N
1497612975.3,286046960.8,N
1497612995.1,286046958.1,N
1497613015.8,286046958.4,N
1497613035.7,286046956.8,N
1497613055.5,286046958.0,N
1497613075.3,286046957.5,N
1497613095.2,286046959.1,N
1497613115.9,286046957.2,N
1497613135.7,286046959.5,N
1497613155.6,286046961.0,N
1497613175.4,286046959.2,N
1497613195.2,286046959.3,N
1497613215.0,286046956.5,N
1497613215.9,286046956.5,N
1497613235.8,286046957.3,N
1497613255.6,286046956.1,N
1497613275.4,286046954.1,N
1497613295.3,286046951.7,N
1497613315.1,286046952.0,N
1497613335.8,286046950.4,Y
1497613355.7,286046980.9,N
1497613375.5,286046983.3,N
1497613395.3,286046982.3,N
1497613415.2,286046982.2,N
1497613435.9,286046983.6,N
1497613455.7,286046982.7,N
1497613475.6,286046982.2,N
1497613495.4,286046980.9,N
1497613515.2,286046983.1,N
1497613535.1,286046981.5,N
1497613536.0,286046981.5,N
1497613555.8,286046978.9,N
1497613575.6,286046979.9,N
1497613595.5,286046978.2,N
1497613615.3,286046979.1,N
1497613635.1,286046978.3,N
1497613655.8,286046979.7,N
1497613675.7,286046977.4,N
1497613695.5,286046978.7,N
1497613715.3,286046978.3,N
1497613735.2,286046975.0,N
1497613755.9,286046975.3,N
1497613775.7,286046974.8,N
1497613795.6,286046975.2,N
1497613815.4,286046974.3,N
1497613835.2,286046972.6,N
1497613855.1,286046973.8,N
1497613856.0,286046973.8,N
1497613875.8,286046973.2,N
1497613895.6,286046972.7,N
1497613915.5,286046971.7,N
1497613935.3,286046969.9,N
1497613955.1,286046970.0,N
1497613975.8,286046970.5,N
1497613995.7,286046969.0,N
1497614015.5,286046968.6,N
1497614035.3,286046968.5,N
1497614055.2,286046966.6,N
1497614075.9,286046967.3,N
1497614095.7,286046967.2,N
1497614115.6,286046968.7,N
1497614135.4,286046968.0,N
1497614155.2,286046968.3,N
1497614175.1,286046967.1,N
1497614176.0,286046967.1,N
1497614195.8,286046967.3,N
1497614215.6,286046966.1,N
1497614235.4,286046968.3,N
1497614255.3,286046967.0,N
1497614275.1,286046967.3,N
1497614295.8,286046967.2,N
1497614315.7,286046967.2,N
1497614335.5,286046964.8,N
1497614355.3,286046963.6,Y
1497614375.2,286046996.6,N
1497614395.0,286046999.5,N
1497614395.9,286046999.5,N
